Flag for Canada Weather past 2 weeks in Ottawa, Ontario, Canada

Now
52 °F

Partly cloudy.


Feels Like: 51 °F
Forecast: 49 / 77 °F
Wind: 5 mph from Southwest

Location: Ottawa Int'L. Ont.

Current Time: Jul 3, 2015 at 3:19:25 AM

Latest Report: Jul 3, 2015 at 3:00 AM


Visibility: 15 mi

Pressure: 29.94 "Hg

Humidity: 82%

Dew point: 46 °F

Location of OttawaLocation

Historic Weather in Ottawa — Graph

°F

Ottawa temperature yesterday

Maximum temperature yesterday: 72 °F (at 3:00 PM)
Minimum temperature yesterday: 50 °F (at 5:00 AM)
Average temperature yesterday: 62 °F

Past Weeks' High & Low Weather Summary

 TemperatureHumidityPressure
High82 °F (Jun 23, 2:00 PM)100% (Jun 18, 9:00 PM)30.16 "Hg (Jun 18, 9:00 PM)
Low46 °F (Jun 20, 4:00 AM)31% (Jun 26, 5:00 PM)29.52 "Hg (Jun 23, 1:00 PM)
Average65 °F73%29.90 "Hg
* Reported Jun 18 2:00 AM — Jul 3 2:00 AM, Ottawa, Weather by CustomWeather, © 2015

Note: Actual official high and low records may vary slightly from our data, if they occured in-between our weather recording intervals... More about our weather records

Advertising

Ottawa weather history for previous 24 hours

 ConditionsComfort  
Time TempWeatherWind HumidityBarometerVisibility
2:00 AM
Fri, Jul 3
52 °FPassing clouds.5 mph82%29.94 "Hg15 mi
1:00 AM54 °FPassing clouds.5 mph77%29.94 "Hg15 mi
12:00 AM55 °FClear.6 mph72%29.93 "Hg15 mi
11:00 PM
Thu, Jul 2
59 °FClear.5 mph63%29.93 "Hg15 mi
10:00 PM61 °FPassing clouds.5 mph55%29.94 "Hg15 mi
9:00 PM63 °FPassing clouds.6 mph52%29.93 "Hg15 mi
8:00 PM66 °FPassing clouds.7 mph49%29.92 "Hg15 mi
7:00 PM70 °FPassing clouds.9 mph43%29.91 "Hg15 mi
6:00 PM72 °FPassing clouds.12 mph41%29.90 "Hg15 mi
5:00 PM72 °FPassing clouds.9 mph38%29.90 "Hg15 mi
4:00 PM72 °FPassing clouds.14 mph38%29.91 "Hg15 mi
3:00 PM72 °FPassing clouds.16 mph41%29.91 "Hg15 mi
2:00 PM70 °FPassing clouds.10 mph40%29.91 "Hg15 mi
1:00 PM70 °FPassing clouds.10 mph46%29.90 "Hg15 mi
12:00 PM68 °FPassing clouds.13 mph46%29.90 "Hg15 mi
11:00 AM66 °FPassing clouds.14 mph49%29.89 "Hg15 mi
10:00 AM63 °FPassing clouds.14 mph64%29.89 "Hg15 mi
9:00 AM61 °FPassing clouds.14 mph68%29.89 "Hg15 mi
8:00 AM55 °FPassing clouds.17 mph82%29.89 "Hg15 mi
7:00 AM54 °FPassing clouds.14 mph88%29.89 "Hg15 mi
6:00 AM50 °FPassing clouds.8 mph94%29.88 "Hg15 mi
5:00 AM50 °FPassing clouds.8 mph94%29.87 "Hg15 mi
4:00 AM52 °FPassing clouds.13 mph88%29.86 "Hg15 mi
3:00 AM54 °FPassing clouds.12 mph88%29.86 "Hg15 mi
Weather by CustomWeather, © 2015

See weather overviewHow to use our weather pages